Temperature
14 14 15 15 14 13 13 15 17 19 20 21 21 21 19 19 19 19 18 18 18 17 17 16 16 16 16 16 16 16 16 16 16 16 16 16 16 16 16 16 16 17 17 17 17 17 17 16 16
13 14 14 14 13 12 13 15 18 19 21 21 21 20 19 18 18 17 17 17 18 17 17 16 16 16 16 16 16 16 16 16 16 16 16 16 16 16 16 17 17 17 17 17 17 17 17 16 16
13 13 14 12 12 13 15 17 18 20 21 21 20 20 19 18 17 17 17 17 17 17 17 16 16 16 16 16 15 16 16 16 16 16 16 17 17 17 17 17 17 17 17 17 17 17 17 17 16
12 13 13 11 12 14 16 18 19 20 21 21 20 18 18 18 18 18 18 17 17 17 16 16 16 16 16 16 16 16 16 16 16 17 17 17 17 17 17 17 18 18 18 18 17 17 17 17 17
11 12 11 11 12 14 16 18 19 19 19 20 19 17 17 18 19 18 18 17 17 17 16 16 15 16 16 16 16 16 16 16 17 17 17 17 17 18 18 18 18 18 18 18 18 17 17 17 17
11 11 11 12 13 15 16 18 19 19 19 19 18 17 17 18 18 18 17 17 17 17 16 15 15 15 16 16 16 16 16 16 17 17 17 17 18 18 18 18 18 18 18 18 18 17 17 17 17
10 10 11 12 13 14 16 18 18 18 18 19 19 16 16 17 18 18 17 17 17 16 16 15 15 15 16 16 16 16 16 16 17 17 17 17 18 18 18 18 18 18 18 18 18 17 17 17 17
10 10 11 11 13 14 17 18 19 19 18 19 19 17 16 17 17 17 17 17 16 16 16 15 15 15 16 16 16 16 16 16 16 17 17 17 17 18 18 18 18 18 18 18 17 17 17 17 17
10 10 10 12 13 14 16 17 18 19 18 18 18 18 18 17 17 17 16 16 16 16 16 15 15 15 15 16 16 16 16 16 16 17 17 17 18 18 18 18 18 18 17 17 17 17 17 17 16
9 9 11 13 13 14 16 16 17 17 16 17 17 18 17 17 17 17 17 16 16 16 16 16 15 15 15 16 16 16 16 16 16 17 17 17 17 18 18 18 17 17 17 17 17 17 17 17 16
9 9 11 13 14 14 15 16 16 16 15 16 17 17 17 17 17 17 17 17 17 16 16 16 16 16 16 16 16 16 16 16 16 17 17 17 17 17 17 17 17 17 17 17 17 17 17 16 16
9 10 11 12 13 13 14 15 15 15 16 17 18 18 17 17 17 17 17 17 17 16 16 16 16 16 16 16 16 16 17 16 16 16 17 17 17 17 17 17 17 17 17 17 17 16 16 16 16
8 9 11 12 12 12 13 14 14 15 16 17 17 17 17 17 17 17 17 17 17 16 16 16 16 16 16 16 16 16 16 16 16 16 16 17 17 17 17 17 17 17 17 16 16 16 16 15 15
8 9 10 11 12 12 12 13 13 14 15 16 16 16 17 17 17 17 17 17 17 17 16 16 16 16 16 16 16 16 16 16 16 16 16 16 16 16 16 16 16 16 16 16 16 15 15 15 15
9 9 10 11 11 11 12 12 13 14 15 15 15 16 16 16 17 17 17 17 17 17 17 16 16 16 16 16 16 16 16 16 16 15 15 15 15 15 15 16 16 16 15 15 15 15 15 14 14
8 9 9 10 11 11 11 11 12 13 14 14 14 15 15 16 16 16 16 16 16 16 16 16 16 16 16 16 15 15 15 15 15 15 15 15 15 15 15 15 15 15 15 15 14 14 14 14 14
8 7 8 10 11 11 11 11 12 12 13 13 14 14 15 15 16 16 16 16 16 16 16 16 16 16 16 16 15 15 15 15 15 15 15 15 14 14 14 14 14 14 14 14 14 14 14 14 13
7 8 9 9 10 10 10 10 11 11 12 12 13 14 14 15 16 16 16 16 16 16 16 16 16 16 16 15 15 15 15 15 14 14 14 14 14 14 14 14 14 14 14 14 14 13 13 13 13
7 8 8 9 10 10 10 10 10 11 11 11 12 13 14 15 16 16 16 16 16 16 16 16 16 16 15 15 15 15 15 15 14 14 14 14 14 14 14 14 14 14 14 14 13 13 13 13 13
7 8 8 9 10 10 9 10 10 11 11 11 12 13 14 14 15 16 16 16 16 16 16 16 16 16 16 16 15 15 15 15 15 14 14 14 14 14 14 14 14 14 14 14 13 13 13 13 13
7 8 8 9 9 10 10 10 10 11 11 12 12 13 14 15 15 16 16 16 16 17 16 16 16 16 16 15 15 15 15 14 14 14 14 14 14 14 14 14 14 14 14 14 13 13 13 13 13
8 8 9 9 9 9 9 9 10 11 11 12 12 13 14 15 16 16 16 16 17 17 17 17 16 16 16 16 15 15 15 15 15 15 15 14 14 14 14 14 14 14 14 14 14 13 13 13 13
8 9 9 9 9 8 9 9 9 10 11 12 12 14 15 16 16 16 17 17 17 17 17 16 16 16 16 16 15 15 15 15 15 15 15 14 14 14 14 14 14 14 14 13 13 13 13 12 12
8 9 9 8 8 8 9 9 9 10 11 12 13 14 15 16 16 16 17 17 16 16 16 16 16 16 16 15 15 15 15 15 15 15 14 14 14 14 14 14 14 14 13 13 13 13 12 12 12
8 8 7 8 8 8 9 9 10 11 12 12 13 14 15 15 16 16 16 16 16 16 16 16 16 15 15 15 15 15 15 15 15 15 14 14 14 14 14 14 13 13 13 13 12 12 12 11 11
8 8 7 8 8 8 9 9 10 11 12 13 13 14 14 15 15 16 16 16 16 16 16 15 15 15 15 15 15 15 14 14 14 14 14 14 14 13 13 13 13 13 13 12 12 11 11 11 10
8 7 8 7 8 8 9 10 11 12 11 11 12 13 14 14 15 15 15 15 15 15 15 15 15 15 14 14 14 14 14 14 14 14 13 13 13 13 13 13 12 12 12 11 11 11 10 10 9
9 8 7 7 8 8 9 10 10 11 11 10 10 12 13 14 14 14 14 14 14 14 14 14 14 14 14 13 13 13 13 13 13 13 13 12 12 12 12 12 12 11 11 10 10 10 9 9 8
8 9 8 7 7 7 8 9 10 10 10 10 10 12 13 13 13 13 14 14 14 13 13 13 13 13 13 12 12 12 12 12 12 12 12 12 11 11 11 11 11 10 10 10 9 9 8 8 7
8 9 8 8 7 7 7 8 10 9 9 9 10 12 12 12 13 13 13 13 13 13 12 12 12 12 12 11 11 11 11 11 11 11 11 11 11 10 10 10 10 9 9 8 8 7 7 7 6
Wind_Speed
10 8 1 2 3 2 7 7 5 3 2 1 1 5 7 5 3 3 5 14 18 17 21 23 22 21 20 19 18 18 17 18 18 18 19 19 20 21 21 21 21 20 19 19 18 17 17 16 15
7 3 2 3 5 5 7 8 8 7 4 3 2 4 6 4 4 7 7 16 20 19 20 21 23 21 20 19 18 18 18 19 19 19 19 20 20 21 21 20 20 19 18 17 16 16 15 14 13
5 2 2 4 6 9 8 7 10 7 5 4 2 3 5 4 4 5 10 19 17 16 19 22 23 22 20 19 18 18 18 19 19 19 19 19 20 20 20 19 18 18 17 16 15 14 13 12 12
2 1 2 4 10 11 8 4 4 3 3 3 5 4 3 2 0 8 17 18 17 12 18 22 23 21 20 19 19 18 19 20 19 19 19 19 19 19 18 18 17 16 16 15 14 13 12 11 11
1 3 5 7 12 9 7 6 2 3 5 4 7 7 3 4 8 19 18 18 16 12 17 21 22 21 20 19 19 19 19 20 19 19 18 18 18 18 17 16 16 15 14 14 12 11 10 9 9
2 3 6 11 13 10 7 7 4 5 5 3 6 9 4 3 12 16 16 16 15 14 16 20 22 20 19 19 18 18 19 19 19 19 18 18 17 17 16 15 14 13 13 12 11 10 9 7 7
4 5 8 10 12 9 9 6 6 7 5 4 7 9 5 4 9 14 15 15 14 14 13 15 18 19 19 18 18 18 19 19 19 19 18 17 17 16 15 14 13 12 11 11 9 8 6 5 4
4 4 7 8 10 9 6 4 4 7 6 3 6 11 9 9 11 15 15 14 14 12 11 12 14 16 16 16 18 18 18 19 19 19 19 18 16 15 14 13 11 11 10 9 8 6 5 3 1
3 6 10 10 9 8 6 4 2 1 5 3 2 5 10 16 17 19 16 13 13 14 12 11 11 13 15 15 16 17 18 18 19 19 19 17 15 14 13 12 11 10 8 7 6 5 3 2 2
6 8 10 6 5 4 5 5 4 2 4 3 4 6 12 15 19 21 21 18 16 15 13 11 11 12 14 13 14 14 14 16 16 16 16 15 14 13 12 12 11 10 8 7 6 5 4 4 4
6 8 7 3 1 2 3 3 1 5 3 6 10 14 14 14 17 19 19 18 17 15 13 12 12 13 12 10 12 11 12 13 14 15 15 14 12 11 11 11 10 9 8 7 6 6 6 6 7
5 6 6 3 3 2 2 2 1 2 5 4 10 17 14 16 16 18 18 17 16 15 13 13 12 12 12 12 11 11 10 10 11 13 15 12 9 9 10 9 10 9 9 8 7 7 8 8 9
8 5 5 4 3 4 4 2 1 2 2 4 6 11 13 14 12 12 14 16 16 16 15 14 14 13 11 10 9 10 10 11 12 13 14 14 10 8 9 9 10 10 10 9 8 8 8 8 8
6 6 5 4 3 3 3 4 0 3 2 5 6 8 10 12 12 10 12 13 15 16 16 14 15 13 11 9 7 8 11 12 12 12 14 15 13 10 8 7 8 9 11 11 10 9 6 6 6
3 4 5 5 4 2 1 3 4 4 3 5 5 5 6 7 9 11 12 12 14 15 15 16 16 14 13 11 9 9 11 12 11 12 14 15 14 12 9 6 5 8 11 10 8 6 5 3 3
3 4 5 6 6 4 3 6 5 1 4 5 4 3 5 6 8 8 9 9 10 12 13 14 14 14 13 10 8 8 10 10 10 12 13 14 14 13 10 5 5 8 7 6 3 3 2 3 3
4 7 7 4 6 5 5 4 3 0 3 5 5 5 5 5 7 7 8 9 10 11 12 13 12 13 12 10 8 8 9 9 10 11 11 12 12 12 9 6 6 6 4 3 2 3 3 3 4
6 6 7 6 4 5 5 3 4 1 2 5 6 5 6 7 8 8 9 9 9 10 11 11 11 11 10 8 6 5 5 5 8 9 10 11 11 12 10 6 6 5 3 2 2 3 3 3 3
1 4 6 4 3 5 6 5 5 4 3 5 6 6 8 9 7 6 8 8 8 8 9 11 11 10 9 7 7 6 6 5 4 6 9 10 10 10 8 4 4 3 3 3 3 3 3 3 2
1 4 4 4 4 4 5 6 6 6 6 7 9 9 10 8 7 7 7 7 9 10 10 10 11 10 10 8 6 4 4 4 4 4 7 9 9 9 8 5 3 3 3 3 2 2 2 2 1
2 4 5 5 4 2 4 3 8 6 8 10 10 11 11 12 11 10 9 9 9 10 11 11 11 11 10 8 5 4 3 2 3 4 4 5 8 8 7 6 4 2 3 3 2 2 3 3 2
3 5 5 7 6 2 4 3 6 8 9 12 13 13 12 12 11 10 10 10 10 10 9 10 10 10 10 9 8 8 7 6 6 5 4 4 6 7 7 6 5 3 2 1 1 1 2 3 3
3 5 6 6 5 3 3 2 5 6 10 14 15 15 13 12 12 12 12 12 10 8 7 8 8 8 8 9 11 10 7 6 4 4 6 4 4 5 6 6 5 3 2 1 1 1 1 2 3
3 6 7 5 3 3 6 4 5 6 12 12 13 13 12 11 11 10 9 7 6 6 6 6 7 7 6 8 9 10 9 8 8 7 6 5 3 3 4 5 5 4 2 2 1 1 1 2 3
4 6 3 2 1 4 5 5 7 8 10 13 13 11 9 8 8 8 8 8 7 8 7 7 8 6 5 6 7 8 8 9 9 8 7 6 4 3 3 3 3 3 2 2 1 0 1 2 3
2 3 4 4 5 2 3 6 6 6 3 5 6 6 6 5 6 7 8 8 8 7 7 7 7 6 5 6 5 5 6 6 5 6 6 6 5 4 4 4 3 3 2 2 1 0 1 2 2
4 2 3 3 2 2 3 4 5 3 3 4 6 6 5 4 5 6 6 6 7 7 6 7 7 5 5 5 5 5 5 5 6 6 5 5 5 5 5 4 3 3 2 2 1 0 1 1 1
2 4 4 3 4 2 1 2 3 4 2 3 5 6 4 4 3 4 4 4 4 5 4 5 6 6 5 6 6 6 6 6 7 7 7 6 6 5 5 4 3 3 2 1 1 1 1 1 1
1 2 3 2 2 4 3 4 4 6 5 6 5 5 5 4 3 2 2 3 3 4 4 4 5 5 5 6 6 7 7 7 7 7 7 6 5 5 5 4 3 3 2 1 1 0 1 1 1
1 2 3 3 1 2 3 4 7 1 4 6 5 4 3 3 2 1 1 2 3 4 5 5 6 6 6 6 7 7 7 7 7 7 6 6 6 5 4 4 3 3 2 2 1 1 1 1 1
Wind_Direction
309 323 347 64 94 149 222 231 225 246 205 188 151 115 116 111 153 164 114 133 135 144 149 147 144 140 136 133 131 128 123 117 114 111 110 110 110 108 107 105 104 103 102 100 99 99 98 96 92
317 326 53 100 156 199 230 222 226 226 206 163 96 97 92 82 80 102 122 139 139 144 146 146 143 140 137 136 135 132 127 121 118 116 114 113 111 109 108 107 106 104 103 102 101 101 99 95 89
301 235 173 149 186 203 216 206 220 238 222 185 122 60 98 97 88 113 138 140 137 141 145 146 143 141 139 139 139 135 129 125 122 120 118 116 114 112 111 109 108 107 106 104 103 101 98 92 84
306 169 152 185 215 218 211 202 185 197 235 175 142 92 72 27 121 130 136 137 135 135 142 146 142 142 141 142 141 137 132 129 126 124 121 120 118 116 114 113 112 111 109 107 105 102 97 90 80
99 175 193 216 226 231 227 243 200 187 226 185 145 133 98 358 103 127 136 138 138 137 142 145 143 143 143 144 143 140 137 133 131 129 126 124 123 122 120 118 116 115 113 112 109 105 100 91 80
218 183 195 213 225 233 238 235 216 215 220 190 140 134 137 101 118 133 138 140 141 142 144 147 145 144 144 145 145 144 141 138 135 133 131 130 129 128 127 124 122 119 118 117 115 111 104 93 81
199 189 207 210 223 232 232 225 202 207 203 189 146 132 138 138 133 137 138 140 142 144 142 143 144 143 144 146 146 146 144 142 140 138 136 135 135 135 134 132 130 127 125 124 123 121 115 102 81
207 196 209 207 210 226 228 216 209 198 189 154 141 148 159 167 143 135 139 142 144 145 143 141 142 141 141 143 145 145 145 145 144 143 142 142 142 142 141 141 140 139 138 138 138 139 138 130 79
217 214 210 202 200 214 218 201 239 185 139 106 123 163 154 146 140 138 142 144 149 151 149 145 142 141 140 141 145 145 147 148 146 148 148 147 148 148 149 152 152 153 155 158 161 168 178 202 273
203 216 214 203 199 210 222 205 183 125 115 109 93 103 130 141 146 150 153 157 158 160 159 154 150 148 147 147 146 147 150 152 153 156 155 156 159 161 164 167 168 171 175 181 191 204 222 242 268
206 219 224 238 270 275 244 232 171 139 167 177 159 151 149 149 153 156 159 161 161 161 164 162 158 157 156 150 154 156 157 160 163 167 167 167 170 174 176 177 183 187 193 204 219 232 242 250 259
233 244 237 245 323 338 299 229 154 196 208 192 167 157 158 160 162 162 163 163 162 163 171 167 164 163 163 159 164 166 166 171 176 182 180 176 176 180 183 188 195 199 205 215 229 240 250 256 258
239 254 243 252 295 327 316 273 154 247 229 117 150 160 168 169 169 168 164 162 161 166 173 172 170 167 167 165 170 172 175 181 187 189 189 185 179 183 188 198 202 209 214 219 227 238 249 256 259
224 240 251 237 248 309 297 287 148 234 179 130 149 173 177 176 169 165 166 166 166 167 172 173 173 171 170 170 172 176 181 183 189 193 195 191 186 185 188 196 203 213 218 223 225 229 235 246 248
231 227 249 229 202 209 266 253 224 227 169 163 169 183 183 186 175 174 176 173 171 171 172 174 175 173 174 174 175 177 181 181 184 189 191 190 188 185 183 185 195 210 215 216 218 228 233 243 248
185 191 213 214 182 182 195 218 231 251 172 192 202 198 197 196 192 186 183 174 173 170 172 176 177 175 176 173 172 174 177 178 182 185 186 187 188 186 181 182 196 206 205 202 202 211 226 247 257
177 188 194 197 184 167 190 227 273 323 183 210 219 224 218 211 205 198 188 181 176 173 174 175 174 175 176 173 171 174 176 178 183 185 186 190 190 188 182 187 199 201 196 202 205 210 212 241 263
173 171 176 178 174 163 190 239 288 283 218 231 229 234 235 223 215 202 193 186 181 177 175 176 175 175 172 167 163 167 172 175 179 182 186 188 191 190 186 188 197 194 186 206 212 222 227 233 252
139 158 158 162 154 160 195 224 251 255 254 249 248 242 243 240 237 214 197 188 181 181 179 180 178 178 172 171 175 178 184 180 176 182 186 184 184 184 180 180 186 184 193 214 219 220 238 250 241
161 152 150 133 144 147 177 223 236 227 232 237 239 240 241 241 243 223 207 194 190 188 187 184 183 182 183 185 181 176 171 175 180 176 179 182 179 179 180 175 177 178 193 210 216 210 227 249 206
186 172 160 148 131 136 136 223 233 229 229 236 230 231 231 223 221 215 203 201 199 196 191 192 190 186 186 178 159 141 127 126 160 177 177 176 169 168 163 162 163 165 179 197 209 202 206 239 252
184 187 162 147 134 155 151 211 241 223 228 230 230 224 224 224 218 215 205 203 203 203 195 192 191 187 185 176 174 173 180 191 197 182 170 152 145 142 143 141 139 131 140 167 197 178 191 206 241
188 166 149 141 126 115 155 190 267 213 223 230 228 224 219 222 215 212 207 204 202 197 189 188 186 187 185 183 185 185 188 192 171 150 151 150 133 127 129 129 124 121 127 139 151 177 201 212 225
145 106 89 81 100 172 187 180 258 217 214 220 224 221 219 216 216 213 208 195 189 182 180 178 177 184 183 183 185 187 185 175 164 162 164 157 140 124 125 126 123 123 131 145 170 206 227 236 240
111 111 104 113 134 233 183 185 246 242 227 214 210 209 209 205 199 190 184 182 180 177 178 175 172 178 178 177 181 183 182 176 176 172 169 162 157 155 153 134 128 126 127 126 123 165 258 253 250
152 129 148 156 175 230 171 214 253 276 263 186 176 176 176 179 180 181 182 181 182 180 176 174 174 176 172 171 173 166 164 167 168 163 160 161 158 149 142 129 122 116 110 97 75 311 269 261 255
135 154 160 116 118 130 223 264 311 16 58 101 119 123 138 160 164 169 171 173 178 179 182 179 173 170 167 162 150 143 145 149 146 138 128 129 130 130 128 123 115 102 89 70 58 305 282 273 260
154 144 100 105 137 164 238 265 253 242 189 119 115 122 126 127 136 152 163 176 181 182 181 177 174 171 162 154 149 137 128 126 126 121 121 122 121 119 124 122 117 106 87 66 57 289 280 251 251
91 113 110 115 147 148 174 263 261 235 201 155 140 134 126 119 117 133 165 173 173 170 171 170 168 158 154 148 136 129 126 124 120 120 125 125 120 120 122 122 119 111 92 64 66 276 267 210 214
183 156 138 139 173 140 147 277 318 252 154 141 139 136 117 105 104 132 162 161 173 185 183 177 172 166 161 148 138 134 128 124 123 124 126 126 123 122 123 119 116 115 105 89 98 111 102 159 161
Height
1518 1520 1521 1523 1525 1530 1529 1518 1509 1506 1506 1506 1506 1506 1506 1510 1514 1520 1516 1517 1522 1526 1530 1534 1537 1539 1541 1542 1543 1544 1545 1546 1547 1547 1548 1550 1551 1553 1554 1555 1556 1557 1558 1559 1560 1560 1561 1561 1562
1516 1518 1520 1520 1525 1532 1524 1511 1506 1503 1504 1505 1506 1507 1507 1510 1512 1513 1514 1519 1523 1527 1530 1534 1537 1540 1541 1543 1544 1545 1546 1548 1548 1549 1550 1551 1553 1554 1555 1557 1558 1559 1560 1561 1562 1563 1563 1564 1564
1514 1515 1518 1518 1522 1521 1514 1503 1501 1500 1502 1503 1505 1507 1508 1510 1512 1513 1515 1520 1524 1528 1531 1535 1538 1540 1542 1543 1545 1546 1547 1549 1550 1551 1552 1553 1554 1556 1557 1559 1560 1561 1562 1563 1564 1565 1565 1566 1566
1512 1514 1514 1517 1515 1508 1502 1498 1498 1500 1501 1502 1503 1508 1508 1511 1512 1514 1517 1521 1525 1528 1532 1535 1538 1540 1542 1544 1545 1547 1549 1550 1551 1552 1554 1555 1556 1558 1559 1561 1562 1563 1564 1565 1566 1567 1567 1568 1568
1509 1509 1512 1513 1508 1500 1497 1496 1497 1499 1501 1500 1501 1505 1508 1511 1512 1516 1519 1523 1526 1529 1533 1536 1538 1540 1542 1544 1546 1548 1550 1551 1553 1554 1555 1557 1558 1560 1561 1563 1564 1565 1566 1567 1568 1569 1569 1570 1570
1507 1506 1509 1508 1503 1496 1494 1494 1496 1497 1499 1499 1500 1503 1508 1510 1513 1517 1521 1524 1528 1530 1534 1537 1539 1541 1543 1545 1547 1549 1551 1552 1554 1555 1557 1559 1560 1562 1563 1565 1566 1567 1568 1569 1570 1570 1571 1571 1571
1504 1503 1503 1502 1499 1496 1492 1493 1494 1494 1496 1498 1498 1502 1506 1510 1514 1517 1522 1526 1529 1532 1535 1537 1539 1541 1543 1545 1547 1549 1551 1553 1555 1557 1558 1560 1562 1563 1565 1566 1567 1568 1569 1570 1571 1571 1572 1572 1572
1499 1500 1499 1498 1497 1494 1490 1490 1491 1491 1493 1496 1497 1499 1503 1508 1513 1517 1523 1527 1530 1533 1535 1538 1540 1542 1544 1546 1548 1550 1552 1554 1556 1558 1559 1561 1563 1564 1566 1567 1568 1569 1570 1571 1572 1572 1572 1573 1573
1497 1499 1495 1493 1492 1490 1488 1489 1489 1490 1490 1492 1494 1496 1499 1504 1510 1516 1522 1527 1530 1533 1535 1538 1540 1542 1544 1546 1548 1550 1552 1554 1556 1558 1560 1562 1563 1565 1566 1568 1569 1570 1571 1571 1572 1572 1573 1573 1573
1493 1493 1488 1485 1486 1486 1486 1486 1487 1488 1489 1491 1492 1495 1499 1502 1507 1512 1518 1523 1527 1530 1534 1537 1539 1542 1544 1545 1548 1550 1552 1554 1556 1558 1560 1562 1563 1565 1566 1568 1569 1570 1570 1571 1572 1572 1572 1573 1573
1489 1486 1483 1484 1484 1484 1485 1485 1486 1486 1489 1489 1489 1493 1498 1501 1505 1510 1515 1520 1524 1529 1533 1535 1538 1541 1543 1545 1547 1550 1552 1554 1556 1558 1560 1561 1563 1564 1566 1567 1568 1569 1570 1570 1571 1571 1572 1572 1572
1486 1483 1483 1483 1483 1484 1485 1485 1485 1486 1487 1488 1489 1491 1495 1499 1502 1506 1512 1517 1522 1526 1531 1534 1537 1540 1542 1545 1547 1549 1551 1553 1555 1557 1559 1560 1562 1564 1565 1566 1567 1568 1569 1569 1570 1570 1570 1571 1571
1484 1482 1482 1483 1484 1485 1485 1485 1485 1485 1485 1487 1490 1492 1495 1497 1501 1505 1509 1514 1518 1524 1529 1533 1535 1538 1541 1543 1546 1548 1550 1552 1554 1556 1558 1559 1561 1562 1563 1565 1566 1567 1567 1568 1568 1569 1569 1569 1569
1482 1482 1481 1482 1483 1485 1486 1485 1485 1485 1486 1488 1490 1493 1494 1497 1500 1504 1508 1512 1516 1521 1526 1530 1533 1536 1539 1542 1544 1547 1549 1551 1553 1555 1556 1558 1559 1561 1562 1563 1564 1565 1566 1566 1567 1567 1567 1567 1567
1481 1482 1482 1481 1482 1484 1487 1488 1486 1485 1487 1489 1491 1493 1495 1498 1500 1503 1506 1510 1514 1518 1523 1527 1530 1534 1537 1540 1542 1545 1547 1549 1551 1553 1555 1556 1558 1559 1560 1561 1562 1563 1563 1564 1564 1565 1565 1565 1564
1480 1483 1484 1481 1482 1484 1490 1489 1485 1485 1487 1489 1491 1493 1495 1497 1500 1503 1506 1509 1513 1516 1520 1524 1528 1531 1534 1537 1540 1543 1545 1547 1549 1551 1553 1554 1556 1557 1558 1559 1560 1561 1561 1562 1562 1562 1563 1562 1562
1480 1483 1484 1482 1481 1483 1488 1488 1485 1486 1488 1489 1491 1493 1495 1497 1500 1502 1505 1508 1511 1514 1518 1521 1524 1528 1531 1534 1537 1540 1542 1545 1547 1549 1551 1552 1554 1555 1556 1557 1558 1559 1559 1560 1560 1560 1560 1560 1559
1479 1480 1480 1482 1481 1483 1486 1487 1486 1487 1488 1489 1491 1493 1494 1496 1498 1501 1503 1506 1510 1513 1516 1519 1522 1525 1528 1531 1534 1537 1539 1542 1544 1546 1548 1550 1551 1552 1554 1555 1556 1556 1557 1557 1557 1557 1557 1557 1556
1478 1478 1480 1482 1481 1484 1487 1488 1487 1488 1489 1490 1490 1492 1493 1495 1497 1500 1502 1505 1508 1511 1513 1516 1519 1522 1525 1527 1530 1532 1535 1537 1540 1543 1545 1547 1548 1550 1551 1552 1553 1553 1554 1554 1554 1554 1554 1553 1553
1477 1479 1480 1481 1481 1484 1488 1489 1488 1487 1488 1488 1490 1491 1492 1493 1495 1498 1500 1503 1505 1508 1510 1513 1516 1519 1522 1524 1526 1529 1532 1535 1537 1540 1542 1543 1545 1546 1548 1549 1550 1550 1550 1551 1551 1550 1550 1549 1549
1478 1479 1479 1481 1483 1485 1488 1491 1489 1486 1487 1488 1488 1489 1490 1491 1492 1495 1497 1500 1503 1505 1508 1510 1513 1515 1518 1521 1523 1526 1529 1531 1533 1535 1537 1539 1541 1543 1544 1545 1546 1546 1547 1547 1547 1546 1546 1545 1545
1477 1476 1477 1479 1485 1489 1489 1494 1488 1484 1484 1483 1484 1485 1486 1487 1489 1492 1494 1497 1500 1502 1505 1507 1510 1512 1515 1518 1520 1522 1524 1526 1528 1531 1533 1536 1537 1539 1540 1541 1542 1542 1543 1542 1542 1541 1541 1540 1539
1475 1473 1476 1479 1484 1490 1490 1494 1488 1481 1481 1479 1478 1478 1480 1483 1485 1488 1491 1493 1496 1499 1502 1504 1507 1509 1511 1514 1517 1519 1521 1524 1526 1528 1530 1532 1533 1535 1536 1537 1538 1538 1538 1538 1537 1537 1536 1535 1534
1473 1476 1479 1483 1486 1493 1489 1493 1488 1480 1474 1471 1471 1472 1475 1479 1481 1484 1487 1490 1493 1496 1499 1501 1504 1506 1508 1510 1512 1514 1517 1519 1522 1524 1526 1528 1529 1531 1532 1533 1533 1533 1533 1533 1532 1532 1531 1530 1529
1475 1481 1488 1490 1492 1492 1484 1487 1482 1469 1465 1464 1465 1468 1471 1474 1477 1480 1484 1487 1489 1492 1495 1498 1500 1502 1505 1507 1509 1511 1514 1516 1518 1520 1522 1524 1525 1526 1528 1528 1528 1528 1528 1528 1527 1526 1525 1524 1523
1477 1479 1486 1489 1491 1490 1484 1485 1475 1464 1461 1460 1462 1465 1468 1472 1474 1477 1480 1483 1486 1489 1492 1494 1497 1499 1501 1503 1505 1507 1510 1512 1514 1516 1518 1520 1521 1522 1523 1523 1524 1523 1523 1522 1521 1520 1520 1519 1518
1477 1480 1480 1485 1487 1489 1486 1478 1469 1463 1463 1462 1463 1466 1468 1470 1472 1475 1478 1481 1484 1486 1489 1491 1493 1495 1497 1499 1501 1503 1505 1508 1510 1512 1514 1515 1516 1517 1518 1518 1518 1518 1517 1517 1516 1515 1514 1513 1512
1474 1476 1482 1486 1488 1488 1483 1480 1477 1469 1467 1466 1466 1467 1468 1470 1472 1474 1477 1479 1482 1484 1487 1489 1490 1492 1494 1495 1497 1499 1501 1503 1506 1507 1509 1511 1512 1512 1513 1514 1513 1513 1512 1511 1511 1510 1509 1508 1507
1476 1477 1480 1485 1486 1490 1489 1486 1471 1469 1467 1468 1468 1468 1469 1470 1472 1474 1476 1478 1480 1482 1484 1485 1487 1488 1489 1491 1493 1495 1497 1499 1501 1503 1505 1506 1507 1508 1509 1509 1508 1508 1507 1506 1505 1504 1504 1503 1502
1475 1475 1478 1484 1487 1490 1492 1488 1469 1467 1467 1467 1468 1470 1471 1472 1473 1474 1476 1477 1478 1480 1481 1482 1483 1484 1486 1487 1489 1491 1493 1496 1498 1500 1501 1502 1503 1504 1504 1504 1504 1503 1502 1501 1500 1499 1498 1498 1497